SPIRALE A

Last updated on May 21, 2019, 3:11 a.m. UTC

1 33751U 09008C   19139.86206051  .00000046  00000-0  27772-3 0  9995
2 33751   2.0227 220.5175 5412175 320.1580  10.7014  4.58706016143165
UTC
Height (km)
Latitude
Longitude
Inclination
Orbital Period
UTC large
Height (km)
Speed (km/s)
/
Latitude / Longitude
Inclination (degrees)
Orbital Period (minutes)
Azimuth
Elevation
Range (km)
Doppler Factor
iOS Compass Heading
iOS Angle

Next 30 passes for location: Hong Kong

Rise time Rise Azimuth (degrees) Set time Set Azimuth (degrees) Duration Max altitude (degrees)

No matching passes for this satellites